Temp
12 12 12 13 12 12 13 12 12 12 12 12 13 13 13 12 12 12 13 11 12 12 12 13 13 13 14 14 14 14 8 10 12 13 12 13 13 14 14 14 14 13 12 12 13
12 12 12 12 12 12 12 12 12 12 12 12 12 12 12 11 11 12 10 11 11 12 12 13 13 13 13 13 14 11 7 12 12 12 11 12 12 12 13 13 14 13 12 12 13
11 12 12 12 12 12 12 12 12 12 12 12 12 12 11 11 11 10 10 10 11 11 12 12 12 13 13 13 12 12 10 12 11 12 12 12 12 12 11 11 12 12 13 13 13
11 11 11 11 11 11 12 12 12 12 12 12 12 11 11 11 11 10 10 10 11 11 12 12 12 13 11 11 12 11 11 12 12 12 12 11 12 11 11 12 12 12 11 11 11
11 11 11 11 11 11 12 12 12 12 12 11 11 11 10 11 9 9 10 10 11 11 12 12 12 11 10 11 11 10 10 11 12 12 12 12 11 11 11 12 11 11 11 11 10
11 11 11 11 11 11 11 12 12 11 11 11 11 10 10 9 9 9 10 10 10 11 11 11 10 10 11 10 10 10 10 10 11 11 12 11 10 10 11 11 11 11 11 10 10
11 11 11 11 11 11 11 11 11 11 11 11 11 10 10 8 9 9 9 9 10 10 10 10 10 11 10 10 10 10 9 8 10 10 11 11 11 9 11 11 11 11 10 9 9
11 11 11 11 11 10 11 11 11 11 10 10 10 10 8 8 8 8 9 9 9 10 10 10 10 10 10 10 9 9 7 7 10 10 10 11 8 10 11 11 11 11 9 8 8
10 10 10 10 10 10 10 10 10 10 10 9 10 10 7 7 8 8 8 9 9 9 9 10 10 9 9 6 6 5 8 9 9 10 10 10 8 10 11 10 10 9 8 6 6
10 10 10 10 10 10 10 10 10 9 9 9 9 9 7 7 7 8 8 8 9 9 9 9 9 4 3 5 8 8 8 7 8 8 8 8 6 7 10 10 10 8 7 5 6
10 10 10 10 10 10 9 9 9 9 8 7 7 7 7 7 7 7 8 8 8 9 6 7 4 5 6 7 7 7 7 6 6 7 7 7 6 7 8 8 8 6 5 5 6
10 10 9 9 10 9 9 9 8 8 6 6 6 7 7 7 7 7 8 8 8 6 7 5 6 7 8 7 7 7 6 5 5 6 7 5 5 5 6 5 6 5 5 6 5
9 9 9 9 9 9 9 8 8 8 7 5 6 6 6 7 6 6 7 7 7 7 7 6 7 7 7 6 6 6 6 5 5 4 5 4 4 3 4 5 5 5 5 4 5
9 9 8 8 8 8 8 8 8 8 3 5 5 5 6 6 6 6 6 7 7 6 6 6 6 6 6 6 6 6 6 6 5 4 3 4 1 3 4 4 5 5 4 3 3
8 8 8 7 8 8 8 8 8 8 5 5 5 5 5 6 5 5 6 7 6 6 6 6 6 6 5 6 7 6 6 5 5 4 3 3 1 3 4 7 6 5 3 3 3
7 7 8 7 8 7 8 8 7 2 5 3 4 4 5 6 5 5 6 6 6 5 5 5 6 6 6 6 6 6 5 2 2 2 -3 3 3 3 4 5 3 5 4 3 3
6 6 6 7 7 7 7 7 2 3 3 2 3 4 4 4 5 5 5 4 4 4 5 5 5 5 6 5 5 4 2 -4 -2 -3 -1 3 3 3 4 4 4 4 5 3 3
5 5 6 6 7 7 7 3 3 1 1 3 3 3 4 4 4 5 4 3 4 4 2 3 3 5 5 5 5 4 2 -3 -2 -2 -0 3 1 4 4 5 5 4 3 3 3
3 3 4 5 6 6 6 -0 3 2 2 3 3 1 2 4 3 4 3 2 3 4 4 3 5 4 4 4 4 4 1 3 -4 -7 -4 1 2 4 4 2 3 3 4 3 3
2 1 3 4 4 4 0 3 1 4 3 3 4 0 -1 -1 3 2 2 3 3 3 4 3 2 4 4 4 3 4 3 0 -5 -4 -4 -1 2 2 4 1 0 1 2 2 2
1 2 2 3 3 3 -2 -1 2 4 5 4 2 -1 1 0 1 0 2 2 2 2 4 2 2 3 4 3 2 -0 -1 -1 -0 -1 -4 -4 0 1 2 -0 -1 -0 1 1 1
1 -1 0 2 1 -0 -4 -0 3 2 3 3 3 1 0 -1 -2 1 2 3 3 2 2 2 0 -2 2 1 2 2 2 0 -4 -2 -2 -3 1 2 -1 -1 -0 -1 -0 1 1
1 -2 -2 -0 -0 -3 -3 1 2 1 2 2 3 3 0 -1 0 -1 1 -0 2 1 -0 0 -3 -7 -2 -0 1 2 1 0 -7 -7 -4 -6 -1 1 1 -0 -1 -1 -0 -0 -0
-0 -3 -4 -2 -2 -2 -3 -1 0 1 1 2 1 1 -0 -3 -3 -2 -1 -1 1 1 1 1 -6 -4 -1 1 -1 1 1 0 -6 -10 -5 -3 -3 -1 -2 -4 -2 -1 -1 -1 -2
-1 -3 -2 -3 -3 -2 1 1 1 -0 1 2 0 1 1 -2 -4 -4 -4 -2 -1 1 -1 -2 -4 -7 -7 -3 -2 -1 -1 -1 -6 -8 -5 -1 -8 -4 -8 -6 -3 -4 -2 -2 -2
-2 -3 -3 -2 0 -1 1 -2 1 -1 -0 0 0 1 -2 -2 1 -2 -5 -6 -2 -3 -6 -6 -5 -6 -8 -4 -4 -4 -3 -3 -3 -6 -6 -5 -4 -3 -4 -5 -5 -5 -4 -5 -5
-1 -1 -0 -2 -0 -0 1 -1 2 0 -1 1 1 -1 -1 -0 -1 -1 -1 -1 -2 -5 -8 -6 -7 -10 -8 -6 -7 -5 -5 -2 -5 -8 -8 -8 -7 -6 -8 -8 -8 -7 -7 -7 -7
Height
1542 1542 1543 1543 1543 1542 1542 1540 1539 1538 1538 1538 1538 1539 1539 1540 1540 1540 1538 1542 1540 1539 1539 1539 1538 1537 1536 1536 1536 1537 1550 1556 1551 1549 1553 1551 1551 1550 1551 1550 1549 1549 1550 1550 1546
1542 1541 1541 1541 1542 1543 1542 1542 1540 1539 1539 1539 1539 1540 1540 1541 1542 1541 1543 1541 1541 1541 1540 1540 1540 1539 1539 1540 1540 1540 1554 1549 1548 1548 1550 1551 1552 1552 1551 1549 1549 1549 1549 1548 1546
1541 1541 1541 1542 1542 1543 1543 1543 1542 1540 1540 1540 1540 1540 1540 1541 1542 1545 1544 1543 1542 1542 1541 1541 1541 1541 1542 1543 1545 1546 1553 1550 1551 1550 1550 1550 1550 1551 1551 1550 1549 1549 1547 1546 1543
1541 1541 1540 1541 1541 1542 1543 1543 1543 1542 1541 1541 1541 1541 1541 1542 1547 1545 1545 1545 1545 1544 1543 1542 1542 1542 1544 1547 1548 1551 1552 1552 1553 1551 1550 1550 1551 1550 1549 1549 1548 1549 1548 1546 1543
1541 1541 1541 1541 1541 1542 1542 1543 1544 1543 1542 1542 1542 1542 1543 1543 1545 1545 1545 1546 1546 1545 1544 1545 1545 1546 1548 1548 1549 1551 1553 1553 1552 1552 1551 1550 1549 1550 1546 1547 1547 1548 1547 1544 1542
1540 1541 1540 1541 1542 1542 1542 1542 1543 1543 1542 1541 1542 1544 1545 1545 1546 1546 1546 1545 1546 1546 1545 1545 1546 1548 1549 1550 1550 1553 1553 1552 1552 1551 1550 1550 1550 1549 1546 1547 1548 1548 1546 1544 1542
1539 1541 1541 1541 1542 1543 1542 1542 1543 1542 1542 1542 1543 1545 1545 1548 1547 1546 1547 1546 1546 1547 1547 1547 1548 1549 1550 1551 1552 1551 1553 1551 1550 1550 1550 1550 1548 1549 1547 1547 1548 1548 1546 1544 1542
1538 1540 1540 1541 1541 1542 1542 1542 1542 1543 1543 1542 1543 1544 1546 1548 1547 1547 1548 1548 1547 1547 1549 1549 1549 1550 1551 1553 1553 1554 1556 1561 1551 1552 1554 1554 1557 1547 1546 1546 1547 1547 1546 1544 1541
1537 1539 1539 1539 1540 1541 1542 1542 1542 1543 1543 1543 1544 1544 1548 1549 1549 1549 1548 1548 1548 1549 1550 1550 1551 1552 1553 1556 1563 1563 1564 1561 1559 1553 1554 1556 1554 1547 1548 1548 1547 1547 1546 1543 1542
1535 1537 1538 1538 1539 1540 1541 1542 1542 1543 1544 1543 1545 1548 1549 1549 1548 1549 1549 1549 1548 1548 1550 1552 1553 1558 1561 1563 1566 1564 1563 1563 1565 1560 1558 1559 1557 1549 1548 1547 1544 1545 1544 1543 1542
1534 1536 1536 1538 1538 1539 1542 1542 1546 1546 1544 1545 1546 1547 1549 1550 1550 1549 1550 1550 1549 1550 1553 1554 1561 1568 1565 1562 1564 1564 1565 1566 1565 1561 1560 1559 1559 1547 1545 1544 1541 1542 1544 1543 1542
1533 1534 1536 1536 1537 1539 1540 1542 1542 1544 1546 1546 1547 1547 1548 1550 1550 1550 1551 1553 1552 1555 1556 1560 1565 1564 1563 1562 1563 1566 1569 1571 1565 1561 1560 1561 1557 1550 1547 1546 1542 1542 1543 1543 1542
1530 1532 1534 1535 1536 1538 1539 1542 1542 1543 1545 1548 1547 1548 1549 1551 1551 1551 1552 1552 1552 1556 1559 1564 1566 1564 1564 1565 1566 1569 1570 1572 1573 1567 1560 1561 1560 1556 1552 1551 1548 1546 1545 1545 1545
1527 1530 1533 1534 1539 1537 1539 1540 1542 1543 1553 1550 1548 1549 1550 1551 1553 1552 1553 1555 1554 1558 1559 1563 1565 1566 1567 1567 1568 1570 1571 1571 1571 1573 1579 1567 1588 1563 1555 1552 1549 1548 1548 1548 1548
1525 1527 1530 1532 1533 1536 1540 1540 1543 1545 1567 1552 1549 1549 1549 1552 1554 1554 1555 1555 1556 1558 1560 1566 1565 1567 1570 1569 1567 1570 1568 1570 1569 1574 1575 1575 1589 1566 1557 1551 1550 1550 1550 1550 1548
1521 1524 1527 1530 1533 1535 1537 1540 1544 1560 1559 1550 1548 1549 1551 1552 1552 1553 1554 1557 1558 1559 1560 1564 1565 1565 1568 1570 1568 1568 1568 1573 1577 1580 1612 1575 1579 1573 1561 1555 1555 1552 1551 1550 1549
1518 1521 1525 1528 1531 1534 1536 1541 1560 1566 1550 1553 1550 1550 1550 1553 1553 1553 1555 1557 1561 1568 1563 1565 1568 1566 1566 1571 1570 1570 1579 1617 1609 1614 1606 1574 1577 1566 1558 1558 1556 1552 1549 1549 1549
1513 1518 1521 1525 1529 1532 1536 1543 1560 1552 1549 1544 1546 1550 1551 1552 1553 1553 1555 1560 1557 1560 1571 1571 1579 1568 1568 1571 1573 1574 1581 1615 1623 1616 1595 1575 1587 1564 1561 1559 1557 1556 1553 1552 1550
1510 1514 1519 1522 1526 1530 1534 1557 1543 1537 1534 1540 1547 1555 1556 1551 1551 1552 1555 1558 1556 1556 1565 1571 1566 1568 1569 1571 1573 1577 1588 1581 1609 1625 1614 1582 1572 1559 1559 1561 1560 1558 1556 1554 1550
1505 1512 1516 1520 1524 1529 1534 1532 1531 1526 1530 1533 1537 1548 1559 1556 1550 1553 1554 1552 1555 1555 1556 1564 1574 1567 1570 1571 1574 1573 1577 1595 1612 1626 1630 1589 1575 1569 1560 1565 1560 1560 1559 1556 1553
1504 1512 1512 1516 1523 1528 1535 1530 1522 1522 1525 1530 1536 1547 1545 1548 1549 1553 1550 1553 1552 1555 1556 1561 1565 1572 1571 1572 1576 1583 1587 1588 1591 1600 1621 1619 1574 1562 1563 1564 1563 1560 1557 1555 1551
1499 1506 1510 1512 1521 1519 1524 1518 1516 1519 1522 1524 1527 1533 1539 1545 1551 1547 1547 1547 1550 1552 1559 1561 1570 1586 1575 1574 1572 1571 1574 1581 1605 1603 1597 1599 1567 1554 1561 1563 1561 1560 1556 1553 1550
1488 1497 1504 1505 1511 1515 1514 1513 1514 1516 1519 1522 1525 1527 1532 1538 1547 1547 1546 1550 1549 1552 1557 1558 1579 1610 1589 1583 1575 1572 1572 1576 1595 1602 1598 1617 1576 1556 1556 1559 1560 1558 1554 1551 1548
1478 1496 1504 1502 1499 1500 1508 1510 1513 1513 1514 1517 1522 1526 1531 1538 1539 1546 1546 1550 1550 1553 1552 1553 1574 1579 1579 1567 1572 1571 1570 1573 1591 1619 1593 1580 1572 1559 1561 1561 1557 1554 1552 1550 1547
1460 1468 1471 1488 1491 1492 1492 1496 1502 1509 1511 1513 1519 1520 1521 1538 1544 1546 1547 1550 1552 1554 1553 1554 1573 1581 1580 1573 1572 1572 1570 1571 1584 1588 1587 1559 1582 1565 1565 1560 1558 1554 1549 1548 1546
1438 1449 1462 1464 1473 1486 1485 1490 1489 1497 1500 1506 1511 1514 1520 1524 1521 1535 1538 1546 1547 1554 1556 1558 1576 1578 1588 1574 1575 1576 1569 1567 1567 1575 1576 1571 1565 1561 1560 1559 1555 1553 1549 1548 1546
1428 1434 1441 1457 1465 1475 1466 1475 1477 1485 1495 1495 1502 1511 1518 1518 1519 1521 1527 1531 1537 1546 1557 1562 1573 1589 1596 1581 1583 1579 1560 1556 1564 1566 1564 1574 1561 1559 1556 1556 1554 1551 1550 1549 1548
Wind_Speed
2 2 2 2 2 3 3 4 5 5 6 7 6 6 5 6 5 4 8 7 7 5 5 5 7 7 8 6 6 3 4 2 1 2 3 7 5 7 6 7 5 4 6 6 14
2 2 2 2 2 2 3 3 4 5 6 6 5 6 7 8 9 10 9 8 6 4 3 5 7 7 4 5 5 6 4 2 2 3 3 1 5 7 6 11 5 8 7 10 17
1 1 3 3 3 3 3 3 4 4 4 4 5 6 6 4 4 7 7 6 5 5 6 7 6 6 6 6 7 3 3 2 4 4 4 4 7 9 6 3 2 5 12 16 21
1 1 3 3 4 3 3 3 3 3 3 3 4 6 5 1 2 4 5 5 4 3 5 5 4 3 4 4 5 4 7 4 2 3 3 4 6 9 4 4 2 5 6 9 13
1 2 3 3 3 3 2 2 2 2 3 4 4 6 4 5 5 3 4 3 2 2 4 6 8 5 3 3 3 4 5 6 5 6 4 5 6 5 15 15 10 5 5 6 10
0 1 2 2 2 2 1 1 1 1 2 4 5 3 3 4 4 3 2 2 1 3 3 3 4 6 4 4 4 3 6 11 9 5 2 2 4 3 2 3 1 3 3 6 10
1 1 0 1 1 1 1 1 1 2 3 4 4 4 4 4 4 4 2 3 3 4 5 6 5 2 2 2 4 3 5 7 4 3 3 3 3 3 8 4 5 4 3 4 8
3 2 2 1 1 1 0 1 2 2 2 4 4 2 5 5 4 2 2 4 5 5 5 5 5 5 3 2 3 4 4 4 5 4 4 4 6 5 2 3 7 10 3 2 6
5 4 3 3 2 2 2 2 2 4 4 4 3 3 4 4 2 2 2 4 6 6 7 5 4 4 2 4 4 6 1 3 6 5 1 4 7 7 4 13 19 12 4 0 4
7 7 5 5 4 3 3 3 3 3 4 4 4 3 5 2 3 4 4 4 6 7 6 4 5 4 4 5 2 1 2 2 3 5 7 4 13 10 20 18 23 10 6 3 6
9 8 7 6 5 4 4 5 4 2 3 4 3 5 6 5 3 4 5 5 5 5 3 4 6 2 1 2 2 2 1 2 4 5 5 1 7 17 22 13 15 7 7 4 8
10 9 8 7 6 5 5 3 2 4 6 6 6 6 7 4 2 4 2 2 3 3 2 5 3 2 1 3 3 2 2 4 5 5 3 6 10 6 7 5 5 11 7 1 6
13 11 10 8 7 6 6 4 4 5 3 2 4 3 4 3 2 2 2 3 4 3 3 4 1 3 2 3 4 4 2 3 4 7 2 6 6 7 5 8 7 4 1 2 7
15 14 12 9 6 7 6 6 6 4 4 2 1 0 3 3 2 2 3 2 3 3 3 4 3 2 3 3 2 2 2 2 4 5 2 5 4 6 6 4 4 3 1 3 8
17 16 14 14 5 10 6 8 8 3 3 1 2 4 5 3 5 3 2 2 4 3 4 2 3 4 5 1 2 3 2 3 1 1 3 5 3 7 4 3 5 10 3 2 5
19 18 17 16 10 10 10 11 9 6 6 2 3 3 4 1 2 4 2 4 4 4 4 3 2 3 3 1 3 3 3 6 4 2 3 3 3 5 3 4 5 8 5 4 3
22 20 20 18 12 12 15 13 5 4 4 3 3 3 2 3 2 2 3 2 4 5 1 3 2 1 2 2 5 6 6 4 6 4 4 3 2 7 5 4 5 11 10 8 4
22 20 21 19 14 17 19 4 3 3 5 3 4 4 4 4 1 3 4 2 2 4 3 4 4 1 2 2 3 3 4 5 5 3 4 4 4 2 3 7 11 15 7 3 7
24 21 22 21 18 22 15 3 8 7 7 9 4 4 2 3 4 3 5 5 4 4 5 4 1 1 3 2 3 1 2 3 4 1 3 2 5 7 1 11 15 15 15 12 13
27 21 19 22 20 23 3 7 5 4 7 3 7 3 7 5 5 5 7 3 5 2 1 5 4 2 0 2 4 2 4 3 3 2 5 4 3 5 5 5 9 18 23 27 26
27 12 17 22 22 13 4 7 5 7 7 6 5 4 4 7 7 5 7 1 3 4 3 3 3 1 0 2 6 2 1 4 3 4 4 3 4 6 4 7 7 17 30 32 33
25 5 22 28 8 5 4 6 7 6 6 3 5 4 6 6 4 5 7 1 6 9 7 1 4 3 3 3 2 3 5 5 4 5 4 3 11 7 9 7 19 23 27 26 27
23 9 26 35 6 4 2 3 5 5 5 6 4 2 2 6 4 2 5 2 6 4 6 6 1 3 7 5 3 3 3 4 5 3 6 4 7 2 21 24 25 25 27 26 26
17 4 7 16 7 8 6 6 6 5 6 5 5 4 4 2 3 5 4 1 4 5 6 5 3 7 6 4 4 4 4 4 6 3 4 10 13 13 11 12 25 29 26 22 24
15 8 14 9 14 6 12 14 10 8 4 11 2 5 7 4 3 3 2 3 4 4 3 4 5 2 2 3 3 5 6 9 8 6 6 17 5 10 6 12 20 19 17 16 19
21 10 15 8 28 16 15 11 17 5 11 6 5 9 5 7 8 9 8 4 5 2 3 3 3 3 4 3 3 4 8 9 10 4 8 10 14 4 5 8 17 18 16 16 15
19 19 24 15 16 15 14 11 14 16 4 9 13 7 6 3 6 13 10 13 12 7 4 5 6 3 4 4 5 8 8 12 4 4 7 4 7 1 4 9 15 17 17 16 16
Wind_Direction
51 50 28 26 35 69 67 76 79 82 82 76 86 104 113 97 76 92 66 55 56 61 68 80 106 84 67 66 59 46 59 67 30 97 136 34 29 17 1 348 34 60 67 0 333
53 63 63 52 51 52 70 69 74 75 75 88 107 122 112 99 88 77 68 62 55 48 76 88 81 59 44 34 32 62 88 147 309 107 134 65 35 360 1 332 322 320 348 347 329
100 96 82 66 56 56 63 44 46 60 75 97 123 132 128 117 72 42 55 59 65 71 86 93 85 46 53 39 20 36 127 144 30 88 42 10 355 344 340 314 287 313 325 325 325
98 93 89 79 75 68 50 43 33 51 86 109 125 134 119 106 103 52 50 48 56 79 109 105 74 64 65 54 23 75 30 21 89 13 356 329 317 319 281 273 334 319 329 334 339
19 59 57 66 73 82 70 43 33 61 87 109 124 134 114 81 86 77 60 41 42 63 92 76 62 38 73 71 58 60 352 336 307 301 290 281 275 273 282 292 287 290 313 340 333
68 21 69 60 67 107 104 115 107 87 102 130 142 156 136 81 99 75 57 42 4 34 75 73 88 76 73 68 79 337 313 300 301 287 244 261 290 342 323 343 328 331 347 327 324
163 167 152 125 145 191 140 93 89 123 133 139 138 120 123 105 115 96 81 65 56 47 79 93 94 109 82 85 16 352 355 342 351 272 216 320 338 227 329 325 308 348 331 305 324
182 194 190 199 184 220 207 137 125 132 155 154 144 123 96 111 105 119 78 69 74 77 84 94 93 87 55 20 30 31 48 28 328 102 356 10 278 289 348 319 314 322 308 284 320
200 193 195 194 206 204 193 171 158 152 153 153 142 128 104 121 79 73 78 85 89 88 88 94 81 66 53 72 26 9 49 357 337 41 49 23 276 277 325 318 312 319 262 121 342
202 203 197 194 197 193 184 169 162 150 143 147 131 118 133 128 102 89 102 93 98 102 86 50 49 56 27 48 205 309 8 325 276 329 3 293 281 293 303 307 301 306 180 103 350
207 204 199 198 194 189 177 147 148 131 132 90 103 97 126 122 101 103 109 97 84 66 75 39 68 82 22 42 105 140 180 268 267 303 343 169 283 290 315 309 319 163 130 77 360
212 206 202 198 196 191 188 201 207 151 102 102 110 112 142 134 102 95 87 65 52 85 58 31 83 244 211 69 90 54 358 336 296 336 335 351 293 324 21 6 2 150 143 303 337
207 206 201 200 193 196 202 209 169 151 76 101 122 142 154 154 108 77 81 90 89 73 61 106 156 53 44 21 39 29 24 6 275 323 323 347 337 338 46 68 79 110 189 24 8
207 206 202 194 196 197 203 197 165 154 69 218 146 359 141 135 51 98 90 89 50 116 102 87 48 67 52 51 88 33 348 327 324 25 315 50 283 308 338 344 298 279 304 37 15
210 205 202 192 186 178 182 168 156 131 359 96 135 144 131 135 127 35 92 81 102 103 95 176 104 69 57 15 2 245 292 285 265 92 1 3 66 274 329 319 330 329 296 340 352
213 203 201 200 193 176 161 148 139 46 260 174 126 144 105 95 87 116 107 74 98 81 46 100 85 96 148 45 49 304 334 41 48 75 28 247 111 283 301 325 336 335 268 256 303
216 204 199 198 192 176 157 144 48 146 359 248 177 161 133 155 124 129 131 115 149 102 128 43 6 45 85 83 10 51 40 352 354 5 217 249 3 246 298 5 311 301 272 236 254
215 207 198 197 187 172 159 66 143 229 209 176 130 106 172 166 155 145 118 145 246 88 118 143 320 168 37 75 144 64 116 142 242 271 270 279 235 243 5 339 350 2 350 255 269
213 202 198 191 184 175 164 115 205 199 162 147 61 104 248 207 146 142 181 184 184 181 138 139 186 68 65 49 93 172 74 156 106 66 25 244 310 320 149 20 25 7 347 301 278
202 192 198 188 181 177 112 222 206 169 130 131 166 148 176 213 156 178 186 192 168 184 134 200 106 78 323 127 31 111 149 64 9 13 305 275 240 234 354 319 17 10 7 3 344
189 172 188 180 174 174 178 223 185 171 163 151 175 138 193 180 178 191 190 38 160 134 110 143 103 212 60 191 170 36 33 58 118 149 189 286 258 210 111 46 1 360 348 338 337
175 155 169 170 165 192 171 188 159 158 165 153 127 118 165 163 148 183 183 95 166 149 150 122 124 154 166 332 339 178 178 143 132 252 222 176 268 306 100 75 11 344 342 338 339
166 129 169 173 188 206 265 179 169 141 186 165 136 141 146 161 111 165 127 41 153 124 159 178 5 42 348 355 350 214 188 126 104 74 211 150 265 138 349 348 338 336 336 333 334
146 136 173 199 224 156 154 189 167 181 157 145 130 112 118 98 35 159 128 76 110 117 120 118 111 161 190 183 147 177 192 153 122 124 249 235 282 300 321 323 328 334 336 337 341
164 184 172 182 217 200 185 168 166 170 200 165 101 222 161 125 61 136 108 104 55 142 86 110 180 142 263 177 177 215 204 229 184 197 196 277 229 284 278 294 328 334 350 354 355
159 153 175 188 187 183 189 202 179 171 154 193 172 179 166 154 183 190 139 179 184 99 94 22 159 102 322 16 90 262 235 238 234 204 244 257 273 19 6 39 33 19 9 12 24
181 164 158 166 170 182 196 177 190 141 208 176 168 128 167 195 116 116 112 132 142 138 124 122 134 99 263 351 351 314 228 206 198 212 165 193 228 324 21 82 52 42 40 35 22